Location: Unspecified
(0.0000°N, 0.0000°E)
Time: 17:48:50
(UTC+00:00)

STARLINK 1023 - Pass Details

Date: 19 January 2020
Orbit: 346 x 354 km, 53.0° (Epoch: 18 January)

Event Time Altitude Azimuth Distance (km) Brightness Sun altitude
Exits shadow 04:46:42 31° 35° (NE) 637 4.0 -19.6°
Drops below altitude 10° 04:48:20 10° 34° (NE) 1,289 5.7 -19.2°
Sets 04:50:20 0° 34° (NE) 2,126 6.8 -18.7°
